User: anonymous
Location: Unspecified
(0.0000°N, 0.0000°E)
Time: 17:57:24
(UTC+02:00)
Language:

Orbus 21S - Orbit

View from above orbital plane
View from above orbital plane
View from above satellite
View from above satellite

Ground track
Ground track

The orbit data is extracted from the following two-line orbital elements,

1 20669U 90056C   14204.52292403  .00000746  00000-0  82508-3 0  3325
2 20669 024.1114 167.5926 7125076 344.4999 238.7269 02.44276845201286
Epoch (UTC): 23 July 2014 12:33:00
Eccentricity: 0.7125076
inclination: 24.1114°
perigee height: 317 km
apogee height: 33504 km
right ascension of ascending node: 167.5926°
argument of perigee: 344.4999°
revolutions per day: 2.44276845
mean anomaly at epoch: 238.7269°
orbit number at epoch: 20128

The dashed part of the orbit path shows where the satellite is in the earth's shadow,  

DLR